Погода в Коптяках

Россия / Свердловская область     59°17′14″N   60°22′24″E
темп.,
°C
ветер,
м/с
пор.,
м/с
влажн.,
%
обл.,
%
осадки,
мм/ч
давл.,
гПа
погр.,
м
30 ноября, вт
вт3023:00+1зюз41286100 0.0 1015566
02:00−1юз3892100 0.0 1016222
05:000ююз3894100 0.0 1015212
08:000ю3897100 0.0 1013301
11:000ююв31199100 2.0 1011460
14:00+2ю41197100 2.3 1009548
17:00+2ююв31092100 2.3 1007394
20:00+2ююв41390100 0.1 1002594
1 декабря, ср
ср123:00+2ю61696100 2.3 9981095
02:00+3ююз61597100 0.3 9971200
05:00+2ююз51395100 0.4 997712
08:00+3ююз51284100 0.0 9981051
11:00+3ююз51183100 0.0 9991044
14:00+4ююз41182100 0.0 998697
17:00+3ююв3996100 0.0 997407
20:00+2юв31098100 0.3 994388
2 декабря, чт
чт223:00+1ююв41295100 2.2 991636
02:00+2ю51397100 1.7 989836
05:00+3ю51189100 1.7 988841
08:00+3ююз41197100 0.0 989922
11:00+2юз51089100 0.2 9901048
14:00+1зюз61276100 0.1 993907
17:00−2зюз411796 0.1 996719
20:00−4зюз411775 0.0 997850
3 декабря, пт
пт323:00−4зюз511765 0.0 998832
02:00−5зюз411765 0.0 998839
05:00−5зюз411755 0.0 998952
08:00−5зюз511735 0.0 999919
11:00−6зюз5127064 0.0 10011079
14:00−6з5126886 0.0 10021093
17:00−6з51269100 0.0 1005917
20:00−6з51270100 0.0 1007822
4 декабря, сб
сб423:00−6з41171100 0.0 1009676
02:00−7зюз4117481 0.0 1012514
05:00−7з398166 0.0 1014300
08:00−8зсз1487100 0.0 1016141
11:00−7в1183100 0.0 1018111
14:00−7всв3593100 0.8 1018274
17:00−7всв3894100 2.7 1017342
20:00−8св3694100 2.8 1014266